LEOIR Weather Reports


time (UTC)temp
C
wind
direction
speed
KPH
gust
KPH
rain 1hr
cm
rain 24hr
cm
rain mn
cm
humidity
%
barometer
mb
20260507014548 15 32 0.0 0.0 0.00 0.00 0.00 65 1004.8
20260507013046 16 32 0.0 0.0 0.00 0.00 0.00 64 1004.7
20260507011549 15 32 0.0 0.0 0.00 0.00 0.00 65 1004.5
20260507010045 16 32 0.0 0.0 0.00 0.00 0.00 64 1004.6
20260507004541 16 32 0.0 0.0 0.00 0.00 0.00 64 1004.6
20260507003040 16 32 0.0 0.0 0.00 0.00 0.00 63 1004.4
20260507001537 16 32 0.0 0.0 0.00 0.00 0.00 63 1004.5
20260507000037 16 32 0.0 0.0 0.00 0.00 0.00 63 1004.5
20260506234536 16 33 0.0 0.0 0.00 0.00 0.00 63 1004.5
20260506233031 16 33 0.0 0.0 0.00 0.00 0.00 62 1004.5
20260506231529 16 33 0.0 0.0 0.00 0.00 0.00 61 1004.5
20260506230026 17 33 0.0 0.0 0.00 0.00 0.00 60 1004.5
20260506224523 17 33 0.0 0.0 0.00 0.00 0.00 60 1004.6
20260506223021 17 33 0.0 0.0 0.00 0.00 0.00 59 1004.6
20260506221518 17 33 0.0 0.0 0.00 0.00 0.00 58 1004.6
20260506220023 17 33 0.0 0.0 0.00 0.00 0.00 56 1004.5
20260506214515 17 33 0.0 0.0 0.00 0.00 0.00 56 1004.5
20260506213018 18 33 0.0 0.0 0.00 0.00 0.00 55 1004.7
20260506211513 18 33 0.0 0.0 0.00 0.00 0.00 54 1004.5
20260506210012 19 33 0.0 0.0 0.00 0.00 0.00 53 1004.4
20260506204509 19 23 0.0 0.0 0.00 0.00 0.00 52 1004.3
20260506203019 19 75 0.0 0.0 0.00 0.00 0.00 52 1004.4
20260506201510 19 75 0.0 0.0 0.00 0.00 0.00 52 1004.3
20260506200007 20 75 0.0 0.0 0.00 0.00 0.00 51 1004.3
20260506194511 20 75 0.0 0.0 0.00 0.00 0.00 51 1004.3
20260506193006 20 75 0.0 0.0 0.00 0.00 0.00 49 1004.3
20260506191507 21 77 0.0 0.0 0.00 0.00 0.00 49 1004.3
20260506190008 21 77 0.0 0.0 0.00 0.00 0.00 48 1004.2
20260506184504 22 77 0.0 0.0 0.00 0.00 0.00 45 1004.0
20260506183004 22 77 0.0 0.0 0.00 0.00 0.00 44 1003.8
20260506181503 22 77 0.0 0.0 0.00 0.00 0.00 43 1003.8
20260506180007 23 80 0.0 0.0 0.00 0.00 0.00 41 1003.6
20260506174501 23 13 0.0 0.0 0.00 0.00 0.00 41 1003.6
20260506173000 24 20 0.0 0.0 0.00 0.00 0.00 40 1003.4
20260506171602 25 333 0.0 1.6 0.00 0.00 0.00 39 1003.3
20260506170100 25 4 0.0 3.2 0.00 0.00 0.00 38 1003.3
20260506164600 26 358 0.0 3.2 0.00 0.00 0.00 36 1003.3
20260506163059 26 15 0.0 3.2 0.00 0.00 0.00 35 1003.2
20260506161605 26 38 0.0 0.0 0.00 0.00 0.00 34 1003.3
20260506160058 26 78 0.0 4.8 0.00 0.00 0.00 34 1003.2
20260506154557 27 94 0.0 17.7 0.00 0.00 0.00 32 1003.2
20260506153056 28 75 0.0 6.4 0.00 0.00 0.00 31 1003.2
20260506151607 28 33 0.0 16.1 0.00 0.00 0.00 32 1003.1
20260506150052 28 29 0.0 1.6 0.00 0.00 0.00 32 1003.0
20260506144551 28 37 0.0 4.8 0.00 0.00 0.00 32 1003.0
20260506143054 27 306 0.0 4.8 0.00 0.00 0.00 33 1003.1
20260506141550 27 24 0.0 3.2 0.00 0.00 0.00 33 1003.1
20260506134548 27 58 0.0 4.8 0.00 0.00 0.00 33 1003.1
20260506133050 27 54 0.0 9.7 0.00 0.00 0.00 32 1003.0
20260506131552 28 16 0.0 1.6 0.00 0.00 0.00 31 1003.0
20260506130053 28 32 0.0 4.8 0.00 0.00 0.00 31 1002.9
20260506124542 28 27 0.0 9.7 0.00 0.00 0.00 32 1003.0
20260506123041 28 60 0.0 8.0 0.00 0.00 0.00 30 1003.2
20260506121541 28 287 0.0 8.0 0.00 0.00 0.00 31 1003.2
20260506120044 28 342 0.0 12.9 0.00 0.00 0.00 30 1003.2
20260506114542 28 72 0.0 6.4 0.00 0.00 0.00 29 1003.2
20260506113035 28 323 0.0 6.4 0.00 0.00 0.00 30 1003.1
20260506111535 27 318 0.0 8.0 0.00 0.00 0.00 29 1003.0
20260506110036 27 15 1.6 8.0 0.00 0.00 0.00 29 1003.2
20260506104528 27 352 1.6 9.7 0.00 0.00 0.00 30 1003.3
20260506103026 27 326 0.0 6.4 0.00 0.00 0.00 30 1003.3
20260506101542 27 27 0.0 14.5 0.00 0.00 0.00 31 1003.5
20260506100022 26 35 0.0 11.3 0.00 0.00 0.00 31 1003.5
20260506094521 26 316 0.0 16.1 0.00 0.00 0.00 32 1003.6
20260506093022 26 316 1.6 12.9 0.00 0.00 0.00 32 1003.5
20260506091521 26 80 0.0 4.8 0.00 0.00 0.00 31 1003.4
20260506090015 26 83 0.0 11.3 0.00 0.00 0.00 33 1003.3
20260506084518 25 52 0.0 11.3 0.00 0.00 0.00 33 1003.2
20260506083008 25 312 1.6 12.9 0.00 0.00 0.00 33 1003.4
20260506081508 25 81 0.0 6.4 0.00 0.00 0.00 34 1003.4
20260506073053 23 347 0.0 6.4 0.00 0.00 0.00 36 1003.5
20260506071604 23 14 1.6 9.7 0.00 0.00 0.00 37 1003.6
20260506061531 21 324 0.0 3.2 0.00 0.00 0.00 38 1003.6
20260506044502 16 13 0.0 0.0 0.00 0.00 0.00 45 1004.5
20260506043059 16 13 0.0 0.0 0.00 0.00 0.00 44 1004.5
20260506041605 16 13 0.0 0.0 0.00 0.00 0.00 44 1004.7
20260506040052 15 13 0.0 0.0 0.00 0.00 0.00 46 1004.8
20260506034548 14 13 0.0 0.0 0.00 0.00 0.00 48 1004.9
20260506033043 13 13 0.0 0.0 0.00 0.00 0.00 50 1004.9
20260506031540 13 13 0.0 0.0 0.00 0.00 0.00 50 1005.0
20260506030037 13 13 0.0 0.0 0.00 0.00 0.00 50 1005.1
20260506024540 13 13 0.0 0.0 0.00 0.00 0.00 51 1005.1
20260506023033 13 13 0.0 0.0 0.00 0.00 0.00 51 1005.1
20260506021532 13 13 0.0 0.0 0.00 0.00 0.00 50 1005.0
20260506020029 13 13 0.0 0.0 0.00 0.00 0.00 50 1005.0